Orbital Elements
Epoch 2022 Aug. 9.0 TT = JDT 2459800.5
T 2021 July 20.44419 TT Rudenko
q 2.1412248 (2000.0) P Q
n 0.13775110 Peri. 186.16493 -0.70763325 +0.68501016
a 3.7131229 Node 39.00375 -0.63594754 -0.51059204
e 0.4233359 Incl. 15.97858 -0.30793816 -0.51966994
P 7.15
From 818 observations 2014 Jan. 6-2022 July 26, mean residual 0".9.
|